Regional Weather Roundup
Issued by NWS Northern Indiana

Home | Current Version | Previous Version | Text Only | Print | Product List | Glossary Off
Versions: 1 2 3 4 5 6 7 8 9 10 11 12 13 14 15 16 17 18 19 20 21 22 23 24 25 26 27 28 29 30 31 32 33 34 35 36 37 38 39 40 41 42 43 44 45 46 47 48 49 50

000
ASUS43 KIWX 202010
RWRIWX

KIWX WEATHER ROUNDUP
NATIONAL WEATHER SERVICE NORTHERN INDIANA
400 PM EDT SUN APR 20 2014

NOTE: "FAIR" INDICATES FEW OR NO CLOUDS BELOW 12,000 FEET WITH NO
SIGNIFICANT WEATHER AND/OR OBSTRUCTIONS TO VISIBILITY.

* THESE STATIONS ARE NOT UNDER NWS QUALITY CONTROL. THEY ALSO MAY NOT
  REPORT WEATHER SUCH AS PRECIPITATION OR FOG.

INZ001>027-202100-
NORTHERN INDIANA

CITY           SKY/WX    TMP DP  RH WIND       PRES   REMARKS
GARY*          PTSUNNY   77  36  22 S14       30.13F
VALPARAISO     MOSUNNY   73  35  25 SW9       30.15F
MICHIGAN CITY* MOSUNNY   73  32  21 S8        30.14F
LAPORTE*       MOSUNNY   73  34  24 SW8       30.16F
SOUTH BEND     MOSUNNY   73  33  23 VRB3      30.17F
GOSHEN         SUNNY     73  32  22 S7        30.17F
MONTICELLO*    PTSUNNY   71  39  30 CALM      30.16F
LOGANSPORT*    PTSUNNY   70  32  24 SW7       30.17F
ROCHESTER*     MOSUNNY   73  30  20 SE6       30.17F
WARSAW*        MOSUNNY   72  32  23 S5        30.17F
ANGOLA*        SUNNY     72  30  21 S10       30.18F
FORT WAYNE     PTSUNNY   73  33  23 S9        30.18F
HUNTINGTON*    FAIR      71  33  24 S3        30.17F
PERU/GRISSOM   PTSUNNY   74  34  23 SW6       30.16F
MARION*        PTSUNNY   72  31  22 SW9       30.18F

$$
INZ028>050-202100-
CENTRAL INDIANA

CITY           SKY/WX    TMP DP  RH WIND       PRES   REMARKS
LAFAYETTE      MOSUNNY   74  36  25 NW6       30.14F
KOKOMO*          N/A     72  32  23 SW5       30.17F
MUNCIE*        MOSUNNY   73  36  25 W9        30.17F
INDIANAPOLIS   MOSUNNY   73  33  23 VRB3      30.16F

$$
MIZ043>046-050>051-056>058-064>065-071>073-077>080-202100-
SOUTHWEST LOWER MICHIGAN

CITY           SKY/WX    TMP DP  RH WIND       PRES   REMARKS
BATTLE CREEK   SUNNY     71  28  20 S8G23     30.18F
BENTON HARBOR  MOSUNNY   72  37  28 W7        30.15F
COLDWATER*     SUNNY     69  22  17 S7        30.18S
HILLSDALE*     SUNNY     72  20  14 S7        30.19F
HOLLAND        SUNNY     73  37  27 SW10      30.16F
GRAND RAPIDS   MOSUNNY   73  32  22 SW10G21   30.16F
KALAMAZOO      SUNNY     72  29  20 S10G18    30.17F
STURGIS*       SUNNY     72  32  23 SW6       30.17F
THREE RIVERS*  FAIR      72  26  17 S7        30.17F

$$
OHZ001>008-015>018-024>025-202100-
NORTHWEST OHIO

CITY           SKY/WX    TMP DP  RH WIND       PRES   REMARKS
WAUSEON*       FAIR      72  27  18 S9        30.18F
DEFIANCE       MOSUNNY   73  31  21 S13       30.18F
FINDLAY        MOSUNNY   72  32  23 SE10      30.18F
TOLEDO EXPRESS MOSUNNY   73  26  17 S8G17     30.18F
TOLEDO METCALF MOSUNNY   72  40  31 E3        30.19F
LIMA           MOSUNNY   73  33  23 SE10      30.18F

$$
&&



USA.gov is the U.S. government's official web portal to all federal, state and local government web resources and services.